HST
1 20580U 90037B   24151.95665545  .00007453  00000-0  35207-3 0  9991
2 20580  28.4680 100.5528 0002553 205.7246 154.3220 15.17522274674412
ISS (ZARYA)
1 25544U 98067A   24152.43739583  .00055549  00000-0  94858-3 0  9991
2 25544  51.6400  38.3231 0005888 256.9286  80.6207 15.50746198455941
CXO
1 25867U 99040B   24154.63990659  .00000428  00000-0  00000-0 0  9997
2 25867  40.8075 155.2457 8907848 295.3889   0.0934  0.37811928 14506